Vertical_Velocity
-1 -3 -0 3 -2 -1 -4 4 -5 -9 -5 -1 -3 2 3 -1 1 -3 -2 1 -1 -2 -2 -2 -1 -1 -2 -3 -2 -3 -3 -2 1 -1 -6 -3 -3 -5
7 4 -1 -1 -3 -3 0 -3 -4 -11 -18 -7 3 -2 -1 1 1 -4 -0 -0 1 -2 -0 -3 -6 -2 -1 -4 -2 -3 -3 -3 -1 -0 -1 -4 -5 -9
-0 1 -1 -2 3 -0 -3 -6 -5 -4 -8 -1 -0 -2 -0 -3 1 -3 -2 1 -1 -1 -2 -2 -2 -4 -2 -3 -0 -1 -2 -1 -1 2 -1 -3 -4 -2
5 4 0 2 4 5 -1 -5 -7 -1 -4 -2 2 1 -3 -5 -1 0 -1 -4 -2 -3 -1 -0 -1 -2 -4 -0 -3 -2 -3 -4 -2 -1 2 -7 1 -2
2 4 6 -1 1 -3 -8 0 -1 -2 -4 -4 -3 -0 0 -6 5 -5 2 1 -3 -4 -1 -0 -3 -0 -2 -3 -4 -3 -4 -3 -3 -3 -3 1 -4 -3
-2 -1 0 -4 -2 0 1 3 4 1 2 -2 -2 2 -5 -1 -2 2 5 -5 2 -7 -3 -0 -1 -0 -1 -4 -4 -5 -3 -4 -4 -5 -1 -0 -1 -1
1 -1 -4 -3 -0 2 2 -0 -2 -1 1 -1 -3 0 -2 -1 1 -2 2 4 2 -6 5 -5 -3 -2 -3 -2 -0 1 -2 -3 -2 -4 -1 1 -2 -6
-0 -4 -2 2 -1 -2 -1 -0 -1 0 1 -1 1 3 0 -1 -0 -1 1 0 7 -21 4 -6 1 -0 -1 -2 -2 -2 -3 -2 -4 -2 -1 -0 -3 -2
-5 -1 1 4 1 -0 1 -0 -1 -3 -2 1 3 -3 2 -3 -0 0 -2 0 -2 -8 12 -3 -1 -3 -1 -4 -2 -4 -5 -5 1 -1 -1 2 3 -0
-2 0 2 3 -1 0 2 1 -1 -3 -3 -3 -1 1 0 0 -1 2 1 0 -4 -5 4 5 -7 -1 -1 -5 -4 -3 -4 -3 -0 0 -2 -1 -0 0
2 1 1 1 0 2 2 0 -1 -3 -2 -3 -1 -0 -0 -1 1 2 -1 1 -1 -7 -5 2 -6 3 -4 -7 -5 -2 -2 -2 -1 2 -0 -0 0 -1
-3 -1 0 -1 -0 1 1 -0 -0 1 -2 -3 -4 -4 -3 -2 -1 0 1 -0 -1 -4 -3 2 -3 -3 2 -8 -2 -2 -0 -1 -2 -2 -4 -2 -0 2
-1 -2 3 1 1 -1 0 1 -0 -0 -1 -0 -0 -1 -3 -2 -1 -1 -0 1 -1 -3 -1 -1 1 -0 0 0 -4 -3 0 0 1 1 -0 1 2 2
-1 -2 1 1 0 -1 0 -0 0 0 0 -1 0 -2 -2 -2 -3 -2 -1 -1 1 1 -4 -4 -3 -2 0 -0 -2 -2 1 -0 1 2 3 4 3 1
-2 -2 -3 -1 1 1 1 1 0 0 -1 -2 -1 -1 -1 -0 -1 -2 -1 0 -3 0 2 0 -1 -1 -2 -0 -1 -1 -2 1 4 4 1 5 3 3
1 3 -1 0 1 1 -1 -0 1 -0 -0 -0 -1 -0 -0 -1 0 -0 -1 -1 -2 -4 3 -1 -2 -0 -1 -1 0 -0 -1 -0 2 3 5 4 2 4
1 0 -2 -1 1 0 1 0 -0 -1 0 -1 0 -0 -1 -1 -1 -1 -1 -1 -0 -2 -4 -0 -0 -1 -1 0 1 -1 -2 -0 1 2 4 4 5 6
2 -0 1 -2 -1 0 0 -0 1 0 1 0 -1 -1 -1 -1 -1 -2 -1 1 -1 0 -1 -2 -1 -0 -0 1 -0 -1 -1 -0 -5 1 3 4 7 3
4 -0 0 0 1 2 1 -0 -0 -1 1 -0 0 -0 -2 -1 -1 -1 -1 0 -1 0 -1 -0 -1 -0 -0 0 1 0 -1 -1 1 1 3 1 0 -1
2 2 3 2 1 1 -0 -0 1 -0 0 -0 0 -0 -0 -1 -1 -2 -1 -0 -1 -1 -0 -1 0 0 1 1 -1 4 -1 -1 -1 -1 1 2 0 -2
-0 2 1 1 2 2 -0 -0 0 1 0 0 -0 -0 -0 -1 -0 -1 -1 1 -0 -1 -0 -1 0 1 1 0 -0 0 2 -0 2 0 -2 -3 -3 -3
2 1 1 1 1 1 1 0 -1 0 1 0 0 -0 -1 -1 0 -1 -0 -1 -0 -1 -0 -0 -1 1 -0 1 -0 -0 0 1 0 -1 0 -0 1 -0
1 1 2 2 1 0 1 1 1 -0 -1 -1 0 0 -1 -0 -0 0 -0 -0 -0 -1 -0 -1 -0 0 -0 2 1 -0 -0 1 1 0 1 1 1 -2
Height
5616 5607 5598 5588 5577 5567 5555 5545 5535 5535 5531 5517 5500 5484 5470 5462 5458 5452 5449 5446 5442 5439 5436 5434 5432 5431 5431 5432 5434 5436 5439 5445 5450 5457 5465 5475 5485 5503
5600 5589 5578 5569 5556 5546 5537 5526 5515 5504 5502 5493 5478 5466 5456 5450 5445 5440 5437 5434 5430 5426 5424 5421 5419 5417 5417 5417 5418 5420 5423 5427 5433 5438 5446 5454 5462 5474
5579 5567 5557 5547 5535 5527 5518 5507 5495 5484 5475 5469 5457 5448 5442 5437 5432 5428 5424 5420 5416 5412 5409 5407 5404 5403 5403 5403 5403 5404 5407 5410 5416 5422 5426 5436 5443 5452
5559 5549 5538 5530 5521 5509 5499 5487 5474 5463 5454 5449 5443 5436 5430 5424 5419 5416 5411 5406 5402 5398 5395 5392 5391 5389 5389 5389 5388 5389 5390 5394 5398 5404 5409 5417 5426 5432
5540 5530 5520 5511 5500 5492 5481 5468 5458 5447 5438 5433 5431 5423 5418 5412 5409 5403 5399 5394 5389 5385 5382 5380 5378 5377 5376 5374 5373 5374 5374 5376 5380 5385 5392 5398 5405 5415
5522 5513 5504 5495 5484 5474 5464 5452 5443 5435 5427 5422 5417 5411 5406 5401 5396 5391 5387 5381 5377 5373 5372 5369 5366 5364 5361 5360 5358 5357 5357 5360 5363 5368 5374 5382 5388 5396
5505 5497 5486 5477 5467 5457 5448 5438 5430 5424 5417 5412 5407 5402 5396 5390 5385 5381 5376 5373 5367 5365 5364 5356 5353 5349 5346 5344 5344 5342 5342 5345 5349 5353 5359 5366 5371 5378
5488 5478 5468 5459 5449 5441 5433 5425 5418 5413 5408 5403 5398 5393 5388 5382 5376 5371 5367 5363 5360 5354 5353 5345 5340 5337 5334 5331 5329 5328 5329 5330 5334 5339 5345 5351 5358 5363
5472 5463 5453 5444 5435 5427 5419 5414 5408 5402 5398 5394 5389 5382 5378 5372 5367 5363 5358 5354 5351 5347 5344 5336 5329 5325 5322 5319 5317 5314 5312 5313 5318 5322 5328 5336 5343 5350
5456 5448 5439 5432 5423 5416 5410 5404 5399 5394 5389 5384 5379 5373 5368 5363 5358 5354 5350 5346 5342 5337 5333 5327 5320 5317 5314 5310 5306 5302 5298 5297 5301 5305 5310 5318 5327 5334
5443 5435 5428 5420 5413 5407 5401 5396 5392 5387 5382 5376 5371 5366 5359 5354 5350 5346 5341 5338 5335 5328 5323 5318 5312 5310 5305 5300 5296 5291 5288 5287 5289 5293 5296 5302 5311 5320
5431 5424 5416 5409 5403 5398 5393 5389 5385 5380 5375 5370 5365 5358 5352 5347 5342 5338 5334 5331 5327 5322 5317 5312 5306 5302 5298 5292 5288 5283 5280 5279 5282 5285 5288 5293 5300 5309
5419 5412 5406 5400 5394 5390 5386 5382 5378 5374 5369 5365 5360 5354 5348 5341 5336 5331 5327 5324 5321 5316 5311 5305 5301 5295 5291 5287 5282 5277 5275 5276 5278 5280 5284 5289 5296 5304
5407 5401 5396 5391 5385 5382 5378 5375 5371 5367 5363 5359 5354 5349 5343 5337 5331 5325 5321 5317 5315 5311 5305 5299 5294 5289 5285 5282 5278 5274 5273 5275 5276 5278 5281 5287 5294 5302
5396 5390 5385 5381 5378 5374 5371 5368 5364 5360 5355 5351 5347 5343 5338 5333 5327 5320 5316 5312 5308 5306 5301 5295 5290 5285 5281 5278 5275 5272 5272 5274 5276 5278 5282 5287 5293 5301
5386 5381 5376 5372 5369 5366 5363 5360 5356 5352 5348 5345 5341 5337 5333 5328 5322 5316 5311 5306 5303 5299 5297 5291 5286 5282 5278 5276 5273 5272 5272 5273 5276 5280 5284 5288 5294 5301
5376 5371 5366 5363 5360 5358 5355 5352 5349 5345 5342 5338 5335 5331 5327 5323 5318 5312 5306 5301 5298 5295 5291 5287 5284 5280 5276 5274 5273 5272 5273 5275 5277 5280 5285 5290 5296 5303
5366 5361 5357 5354 5352 5350 5347 5345 5342 5339 5336 5332 5329 5326 5322 5318 5314 5309 5303 5298 5294 5292 5289 5285 5281 5278 5276 5274 5273 5273 5274 5276 5278 5282 5286 5291 5298 5304
5355 5350 5347 5345 5344 5342 5340 5337 5334 5332 5329 5326 5323 5320 5317 5314 5310 5306 5300 5295 5291 5288 5286 5283 5280 5277 5275 5273 5273 5274 5274 5277 5280 5283 5288 5292 5297 5303
5343 5340 5338 5336 5335 5334 5332 5330 5327 5325 5323 5320 5317 5314 5312 5309 5306 5302 5298 5293 5288 5285 5283 5281 5279 5276 5275 5274 5273 5274 5275 5276 5279 5283 5288 5293 5297 5302
5330 5328 5326 5325 5326 5325 5324 5322 5320 5318 5316 5313 5311 5309 5307 5304 5301 5298 5295 5291 5286 5282 5280 5279 5278 5276 5275 5274 5274 5274 5275 5277 5280 5283 5288 5292 5296 5301
5318 5316 5315 5315 5315 5316 5315 5314 5312 5311 5309 5306 5305 5303 5301 5299 5297 5294 5292 5289 5285 5280 5278 5277 5276 5275 5274 5273 5273 5274 5275 5277 5280 5282 5286 5290 5295 5299
5305 5304 5304 5304 5305 5306 5307 5306 5305 5303 5302 5300 5298 5297 5296 5294 5292 5290 5289 5286 5283 5279 5276 5274 5274 5273 5273 5273 5273 5273 5274 5276 5278 5281 5284 5288 5292 5296